EXPLORER 38 DEB, 28608

Orbit data source: Space-Track

EXPLORER 38 DEB, 28608 is space debris originally from a launch on Thu, 04 Jul 1968 UTC launched from the Air Force Western Test Range (AFWTR). Debris objects in space refer to the collection of defunct objects orbiting the Earth. Examples of debris include non-operational satellites, rocket bodies, and fragments generated from explosions, collisions, or faulty payload assembly.

Loading next visibility...
Identifier
28608, 1968-055M
Orbit
Active
Country
Flag of USUS
Related business
Manufacturer
Unknown
Mission
Spacecraft
Bus & Motor
Unknown
Mass
Unknown
Launch date (UTC)
1968-07-04 (58 years ago)
Launch vehicle
Unknown
Launch site
Air Force Western Test Range (AFWTR)
Object type
Payload
Rocket body
Debris
Shape & HBR
Unknown
Radar Cross Section
Medium (>0.1 m² and <1 m²)

Expand to show TLE details & history
Last TLE update: 18 hours ago

TLE from 18 hours ago
0 EXPLORER 38 DEB
1 28608U 68055M   26125.26537574 -.00000010  00000-0  00000+0 0  9994
2 28608 120.8165 138.7867 0025015 291.9380  56.9849  6.42257649293914
Epoch: 2026-05-05T06:22Z
TLE epoch observation values (Epoch: 2026-05-05T06:22:08.463Z)
Latitude
-9.37442°
Longitude
-174.2583°
Altitude
5,833.22 km
Speed
5.718 km/s
True Right ascension
09h 37m 40s
True Declination
-9° 20' 32"
Sunlit
Object was in daylight at epoch
Visualization orbit readout
Latitude
Unknown
Longitude
Unknown
Altitude
Unknown
Speed
Unknown
Apparent Right ascension
Unknown
Apparent Declination
Unknown
Sunlit
N/A
Visualization observer readout
Local Sidereal Time
08:45:50
Azimuth
Unknown
Elevation
Unknown
Doppler factor
Unknown
Orbital elements
Apogee altitude
5,877.447 km
Perigee altitude
5,816.285 km
Semi-major axis
12,225.003 km
Eccentricity
0.0025
Inclination
120.8165°
RAAN
138.7867°
Arg. of periapsis
291.938°
True anomaly
57.22567°
Mean anomaly
56.9849°
Eccentric anomaly
57.10525°
Mean motion
1.60572 °/min
Orbital period
224.2 mins
BSTAR
0
Loading maneuver chart data...
Computing Atmospheric mass density...
Loading historical data...
Loading historical data...
Loading historical data...
Loading historical data...
Loading historical data...
Loading historical data...
Loading historical data...

Documentation

Showing up to 5 results
|